Location: Strada George Coșbuc
(47.6577°N, 23.5639°E)
Time: 14:57:20
(UTC+03:00)

N. Korean satellite - Visible Passes

Search period start: 20 September 2020 00:00
Search period end: 30 September 2020 00:00
Orbit: 455 x 503 km, 97.2° (Epoch: 19 September)

Date Brightness Start Highest point End Pass type
(mag) Time Alt. Az. Time Alt. Az. Time Alt. Az.
20 Sep 10.2 05:51:17 10° ENE 05:52:27 11° E 05:53:37 10° ESE visible
22 Sep 8.8 06:30:49 10° NNE 06:34:08 31° E 06:37:23 10° SSE visible
23 Sep 9.8 06:05:32 10° NE 06:07:56 16° E 06:10:18 10° SE visible
25 Sep 7.9 06:45:57 10° NNE 06:49:30 47° E 06:52:59 10° S visible
26 Sep 9.3 06:20:21 10° NE 06:23:21 24° E 06:26:18 10° SSE visible
27 Sep 10.1 05:55:30 10° ENE 05:57:06 12° E 05:58:42 10° ESE visible
29 Sep 8.5 06:35:22 10° NNE 06:38:44 35° E 06:42:01 10° SSE visible
